• în România
  • Lista ţărilor
  • Pe 7 zile
  • Temperatura apei
  • Hartă satelitară
  • Meteo pe hartă
  • Widget-uri
  • user-avatar
    Intrare

    Meteo pe oră la Zalaegerszeg

    Astăzi, 22 Iulie, Duminică

    Timp Temperatura Precipitaţii Vânt Presiune Umiditate
    00:00 +21°C° 0,4 mm 1 m/s 744 mmHg 81%
    01:00 +20°C° 0 mm 1 m/s 744 mmHg 86%
    02:00 +20°C° 0,2 mm 1 m/s 744 mmHg 87%
    03:00 +20°C° 0,2 mm 1 m/s 744 mmHg 88%
    04:00 +20°C° 0,2 mm 1 m/s 744 mmHg 90%
    05:00 +20°C° 0,3 mm 2 m/s 744 mmHg 86%
    06:00 +21°C° 0,3 mm 2 m/s 744 mmHg 82%
    07:00 +23°C° 0,3 mm 2 m/s 744 mmHg 78%
    08:00 +25°C° 0 mm 2 m/s 744 mmHg 70%
    09:00 +26°C° 0 mm 2 m/s 744 mmHg 61%
    10:00 +28°C° 0 mm 2 m/s 744 mmHg 52%
    11:00 +29°C° 0,2 mm 2 m/s 744 mmHg 50%
    12:00 +30°C° 0,2 mm 2 m/s 744 mmHg 48%
    13:00 +31°C° 0,2 mm 2 m/s 743 mmHg 45%
    14:00 +30°C° 0,2 mm 2 m/s 743 mmHg 48%
    15:00 +29°C° 0,2 mm 2 m/s 743 mmHg 51%
    16:00 +29°C° 0,2 mm 2 m/s 743 mmHg 53%
    17:00 +28°C° 0,3 mm 2 m/s 743 mmHg 58%
    18:00 +26°C° 0,3 mm 2 m/s 743 mmHg 63%
    19:00 +25°C° 0,3 mm 3 m/s 743 mmHg 68%
    20:00 +24°C° 0,2 mm 3 m/s 743 mmHg 73%
    21:00 +21°C° 0,2 mm 2 m/s 743 mmHg 77%
    22:00 +20°C° 0,2 mm 2 m/s 743 mmHg 82%
    23:00 +20°C° 0,1 mm 2 m/s 743 mmHg 82%

    Mâine, 23 Iulie, Luni

    Timp Temperatura Precipitaţii Vânt Presiune Umiditate
    00:00 +19°C° 0,1 mm 3 m/s 743 mmHg 83%
    01:00 +19°C° 0,1 mm 3 m/s 743 mmHg 84%
    02:00 +19°C° 0 mm 3 m/s 743 mmHg 83%
    03:00 +19°C° 0 mm 3 m/s 743 mmHg 82%
    04:00 +19°C° 0 mm 4 m/s 743 mmHg 82%
    05:00 +20°C° 0 mm 4 m/s 743 mmHg 79%
    06:00 +21°C° 0 mm 5 m/s 744 mmHg 76%
    07:00 +22°C° 0 mm 6 m/s 744 mmHg 73%
    08:00 +23°C° 0,1 mm 7 m/s 744 mmHg 69%
    09:00 +24°C° 0,1 mm 7 m/s 744 mmHg 65%
    10:00 +26°C° 0,1 mm 8 m/s 744 mmHg 61%
    11:00 +26°C° 0,1 mm 8 m/s 744 mmHg 57%
    12:00 +27°C° 0,1 mm 9 m/s 744 mmHg 54%
    13:00 +28°C° 0,1 mm 9 m/s 744 mmHg 50%
    14:00 +28°C° 0,2 mm 8 m/s 743 mmHg 50%
    15:00 +28°C° 0,2 mm 8 m/s 743 mmHg 50%
    16:00 +29°C° 0,2 mm 7 m/s 743 mmHg 50%
    17:00 +28°C° 0 mm 6 m/s 744 mmHg 53%
    18:00 +27°C° 0 mm 6 m/s 744 mmHg 55%
    19:00 +26°C° 0 mm 5 m/s 744 mmHg 57%
    20:00 +25°C° 0,1 mm 5 m/s 745 mmHg 59%
    21:00 +23°C° 0,1 mm 5 m/s 745 mmHg 62%
    22:00 +23°C° 0,1 mm 5 m/s 746 mmHg 64%
    23:00 +22°C° 0 mm 5 m/s 746 mmHg 66%

    Poimâine, 24 Iulie, Marţi

    Timp Temperatura Precipitaţii Vânt Presiune Umiditate
    00:00 +22°C° 0 mm 5 m/s 746 mmHg 68%
    01:00 +21°C° 0 mm 5 m/s 746 mmHg 70%
    02:00 +21°C° 0 mm 4 m/s 746 mmHg 71%
    03:00 +20°C° 0 mm 4 m/s 746 mmHg 73%
    04:00 +20°C° 0 mm 4 m/s 746 mmHg 75%
    05:00 +21°C° 0 mm 5 m/s 746 mmHg 70%
    06:00 +22°C° 0 mm 5 m/s 746 mmHg 65%
    07:00 +23°C° 0 mm 6 m/s 746 mmHg 61%
    08:00 +26°C° 0 mm 6 m/s 746 mmHg 55%
    09:00 +28°C° 0 mm 6 m/s 746 mmHg 48%
    10:00 +29°C° 0 mm 7 m/s 746 mmHg 42%
    11:00 +30°C° 0 mm 6 m/s 745 mmHg 40%
    12:00 +32°C° 0 mm 6 m/s 745 mmHg 37%
    13:00 +33°C° 0 mm 6 m/s 745 mmHg 35%
    14:00 +33°C° 0 mm 6 m/s 744 mmHg 35%
    15:00 +33°C° 0 mm 6 m/s 744 mmHg 36%
    16:00 +33°C° 0 mm 5 m/s 744 mmHg 36%
    17:00 +30°C° 0 mm 5 m/s 744 mmHg 42%
    18:00 +28°C° 0 mm 4 m/s 744 mmHg 47%
    19:00 +27°C° 0 mm 3 m/s 744 mmHg 53%
    20:00 +26°C° 0 mm 3 m/s 744 mmHg 57%
    21:00 +24°C° 0 mm 3 m/s 745 mmHg 61%
    22:00 +22°C° 0 mm 3 m/s 745 mmHg 66%
    23:00 +21°C° 0 mm 3 m/s 745 mmHg 69%

    25 Iulie, Miercuri

    Timp Temperatura Precipitaţii Vânt Presiune Umiditate
    00:00 +21°C° 0 mm 3 m/s 745 mmHg 73%
    01:00 +20°C° 0 mm 3 m/s 745 mmHg 77%
    02:00 +20°C° 0 mm 3 m/s 745 mmHg 79%
    03:00 +19°C° 0 mm 2 m/s 745 mmHg 81%
    04:00 +19°C° 0 mm 2 m/s 745 mmHg 84%
    05:00 +20°C° 0 mm 3 m/s 745 mmHg 78%
    06:00 +22°C° 0 mm 3 m/s 745 mmHg 72%
    07:00 +24°C° 0 mm 3 m/s 746 mmHg 66%
    08:00 +26°C° 0 mm 4 m/s 746 mmHg 59%
    09:00 +28°C° 0 mm 4 m/s 746 mmHg 51%
    10:00 +30°C° 0 mm 4 m/s 746 mmHg 43%
    11:00 +32°C° 0 mm 4 m/s 745 mmHg 40%
    12:00 +33°C° 0 mm 4 m/s 745 mmHg 37%
    13:00 +34°C° 0 mm 4 m/s 744 mmHg 34%
    14:00 +33°C° 0 mm 4 m/s 744 mmHg 34%
    15:00 +33°C° 0 mm 4 m/s 744 mmHg 34%
    16:00 +33°C° 0 mm 4 m/s 744 mmHg 35%
    17:00 +31°C° 0 mm 3 m/s 744 mmHg 40%
    18:00 +29°C° 0 mm 3 m/s 744 mmHg 46%
    19:00 +28°C° 0 mm 3 m/s 744 mmHg 51%
    20:00 +26°C° 0 mm 3 m/s 744 mmHg 56%
    21:00 +25°C° 0 mm 2 m/s 744 mmHg 62%
    22:00 +24°C° 0 mm 2 m/s 745 mmHg 67%
    23:00 +23°C° 0 mm 2 m/s 745 mmHg 71%

    26 Iulie, Joi

    Timp Temperatura Precipitaţii Vânt Presiune Umiditate
    00:00 +21°C° 0 mm 2 m/s 745 mmHg 75%
    01:00 +21°C° 0 mm 2 m/s 745 mmHg 79%
    02:00 +20°C° 0 mm 2 m/s 745 mmHg 81%
    03:00 +20°C° 0 mm 2 m/s 745 mmHg 83%
    04:00 +20°C° 0 mm 3 m/s 745 mmHg 84%
    05:00 +21°C° 0 mm 3 m/s 745 mmHg 78%
    06:00 +22°C° 0 mm 4 m/s 745 mmHg 71%
    07:00 +25°C° 0 mm 4 m/s 746 mmHg 64%
    08:00 +27°C° 0 mm 4 m/s 746 mmHg 57%
    09:00 +28°C° 0 mm 4 m/s 746 mmHg 50%
    10:00 +30°C° 0 mm 5 m/s 746 mmHg 42%
    11:00 +32°C° 0 mm 5 m/s 745 mmHg 39%
    12:00 +33°C° 0 mm 4 m/s 745 mmHg 37%
    13:00 +34°C° 0 mm 4 m/s 745 mmHg 34%
    14:00 +34°C° 0 mm 4 m/s 745 mmHg 34%
    15:00 +34°C° 0 mm 4 m/s 745 mmHg 34%
    16:00 +34°C° 0 mm 4 m/s 745 mmHg 34%
    17:00 +32°C° 0 mm 4 m/s 745 mmHg 39%
    18:00 +30°C° 0 mm 3 m/s 745 mmHg 45%
    19:00 +28°C° 0 mm 3 m/s 745 mmHg 50%
    20:00 +27°C° 0 mm 3 m/s 745 mmHg 55%
    21:00 +25°C° 0 mm 3 m/s 746 mmHg 59%
    22:00 +24°C° 0 mm 3 m/s 746 mmHg 64%
    23:00 +22°C° 0 mm 3 m/s 746 mmHg 67%

    27 Iulie, Vineri

    Timp Temperatura Precipitaţii Vânt Presiune Umiditate
    00:00 +22°C° 0 mm 3 m/s 746 mmHg 70%
    01:00 +21°C° 0 mm 3 m/s 746 mmHg 73%
    02:00 +21°C° 0 mm 3 m/s 746 mmHg 75%
    03:00 +20°C° 0 mm 3 m/s 746 mmHg 76%
    04:00 +20°C° 0 mm 3 m/s 746 mmHg 78%
    05:00 +21°C° 0 mm 3 m/s 746 mmHg 72%
    06:00 +24°C° 0 mm 3 m/s 746 mmHg 66%
    07:00 +25°C° 0 mm 4 m/s 746 mmHg 61%
    08:00 +27°C° 0 mm 4 m/s 746 mmHg 54%
    09:00 +29°C° 0 mm 4 m/s 746 mmHg 47%
    10:00 +32°C° 0 mm 4 m/s 746 mmHg 41%
    11:00 +33°C° 0 mm 4 m/s 745 mmHg 38%
    12:00 +34°C° 0 mm 4 m/s 745 mmHg 35%
    13:00 +34°C° 0 mm 3 m/s 745 mmHg 33%
    14:00 +34°C° 0 mm 3 m/s 745 mmHg 33%
    15:00 +34°C° 0 mm 3 m/s 745 mmHg 33%
    16:00 +34°C° 0 mm 3 m/s 744 mmHg 33%
    17:00 +32°C° 0 mm 2 m/s 744 mmHg 38%
    18:00 +30°C° 0 mm 2 m/s 744 mmHg 43%
    19:00 +29°C° 0 mm 2 m/s 744 mmHg 48%
    20:00 +27°C° 0 mm 2 m/s 745 mmHg 53%
    21:00 +26°C° 0 mm 2 m/s 745 mmHg 59%
    22:00 +24°C° 0 mm 2 m/s 745 mmHg 64%
    23:00 +24°C° 0 mm 1 m/s 745 mmHg 68%
    Arată mai mult